Hourly Data Report for November 03, 2019

All times are specified in Local Standard Time (LST). Add 1 hour to adjust for Daylight Saving Time where and when it is observed.

HOPE A
BRITISH COLUMBIA
Current Station Operator: NAVCAN

49°22'06.000" N
121°29'53.000" W
39.00 m
1113542
71187
YHE

Download Data

Hourly Data (November 2019)
Hourly Data Report for November 3, 2019
TIME Temp Definition
°C
Dew Point Definition
°C
Rel Hum Definition
%
Wind Dir Definition
10's deg

Wind Spd Definition
km/h
Visibility Definition
km
Stn Press Definition
kPa
Hmdx Definition


Wind Chill Definition


Weather Definition


00:00 2.1 1.2 94 11 11 16.1 102.02     LegendNANA
01:00 2.0 1.1 94 10 9 16.1 102.01     LegendNANA
02:00 1.8 0.9 94 12 15 16.1 102.01     LegendNANA
03:00 1.7 0.8 94 11 15 16.1 102.00     LegendNANA
04:00 1.4 0.7 95 12 17 16.1 101.99     LegendNANA
05:00 1.8 0.8 93 10 18 16.1 101.98     LegendNANA
06:00 1.8 0.7 93 7 13 16.1 101.94     LegendNANA
07:00 1.5 0.6 94 11 21 16.1 101.97     LegendNANA
08:00 2.1 0.9 92 11 15 16.1 102.01     LegendNANA
09:00 3.5 1.6 87 9 13 16.1 102.03     LegendNANA
10:00 5.4 2.3 81 12 21 16.1 102.02     LegendNANA
11:00 7.6 2.7 71 11 17 16.1 101.97     LegendNANA
12:00 9.4 3.3 65 12 11 16.1 101.86     LegendNANA
13:00 8.0 3.8 75 25 5 16.1 101.78     LegendNANA
14:00 9.3 3.1 65 23 11 16.1 101.76     LegendNANA
15:00 8.7 3.4 69 26 9 16.1 101.75     LegendNANA
16:00 8.2 3.8 74 22 9 16.1 101.75     LegendNANA
17:00 7.8 3.7 75 20 11 16.1 101.76     LegendNANA
18:00 4.9 2.8 86   0 16.1 101.76     LegendNANA
19:00 4.0 2.9 93 LegendMM 4 16.1 101.81     LegendNANA
20:00 3.4 2.7 95 LegendMM 4 16.1 101.80     LegendNANA
21:00 3.4 2.7 95 10 8 16.1 101.85     LegendNANA
22:00 3.0 2.4 96 11 5 16.1 101.88     LegendNANA
23:00 2.4 1.8 96 13 5 16.1 101.91     LegendNANA

Notes on Data Quality.

Legend

  • E = Estimated
  • M = Missing
  • NA = Not Available
Date modified: